User: anonymous   Login
Location: Camp Creek
(33.9000°N, 111.8167°W)
Time: 08:59:36
(UTC-07:00)
Language:

Cosmos 1656 - Orbit

View from above orbital plane
View from above orbital plane
View from above satellite
View from above satellite

Ground track
Ground track

The orbit data is extracted from the following two-line orbital elements,

1 15755U 85042A   17348.40753899 -.00000072 +00000-0 -11327-4 0  9999
2 15755 071.1100 343.5312 0033669 134.2811 226.1086 14.20418178686015
Epoch (UTC): 14 December 2017 09:46:51
Eccentricity: 0.0033669
inclination: 71.1100°
perigee height: 799 km
apogee height: 848 km
right ascension of ascending node: 343.5312°
argument of perigee: 134.2811°
revolutions per day: 14.20418178
mean anomaly at epoch: 226.1086°
orbit number at epoch: 68601

The dashed part of the orbit path shows where the satellite is in the earth's shadow,  

DLR